Year,Month,Day,Hour,Minute,Value (Times are PST for temperature in C)
2018,12,11,00,00,4.60
2018,12,11,00,01,4.60
2018,12,11,00,02,4.60
2018,12,11,00,03,4.60
2018,12,11,00,04,4.60
2018,12,11,00,05,4.60
2018,12,11,00,06,4.60
2018,12,11,00,07,4.60
2018,12,11,00,08,4.60
2018,12,11,00,09,4.60
2018,12,11,00,10,4.60
2018,12,11,00,11,4.60
2018,12,11,00,12,4.60
2018,12,11,00,13,4.70
2018,12,11,00,14,4.70
2018,12,11,00,15,4.70
2018,12,11,00,16,4.70
2018,12,11,00,17,4.70
2018,12,11,00,18,4.70
2018,12,11,00,19,4.70
2018,12,11,00,20,4.60
2018,12,11,00,21,4.70
2018,12,11,00,22,4.60
2018,12,11,00,23,4.70
2018,12,11,00,24,4.70
2018,12,11,00,25,4.70
2018,12,11,00,26,4.70
2018,12,11,00,27,4.70
2018,12,11,00,28,4.70
2018,12,11,00,29,4.60
2018,12,11,00,30,4.70
2018,12,11,00,31,4.60
2018,12,11,00,32,4.60
2018,12,11,00,33,4.60
2018,12,11,00,34,4.60
2018,12,11,00,35,4.60
2018,12,11,00,36,4.60
2018,12,11,00,37,4.60
2018,12,11,00,38,4.60
2018,12,11,00,39,4.60
2018,12,11,00,40,4.60
2018,12,11,00,41,4.60
2018,12,11,00,42,4.60
2018,12,11,00,43,4.60
2018,12,11,00,44,4.60
2018,12,11,00,45,4.60
2018,12,11,00,46,4.60
2018,12,11,00,47,4.60
2018,12,11,00,48,4.60
2018,12,11,00,49,4.60
2018,12,11,00,50,4.60
2018,12,11,00,51,4.60
2018,12,11,00,52,4.60
2018,12,11,00,53,4.60
2018,12,11,00,54,4.60
2018,12,11,00,55,4.60
2018,12,11,00,56,4.60
2018,12,11,00,57,4.60
2018,12,11,00,58,4.60
2018,12,11,00,59,4.60
2018,12,11,01,00,4.60
2018,12,11,01,01,4.60
2018,12,11,01,02,4.60
2018,12,11,01,03,4.60
2018,12,11,01,04,4.60
2018,12,11,01,05,4.60
2018,12,11,01,06,4.60
2018,12,11,01,07,4.60
2018,12,11,01,08,4.60
2018,12,11,01,09,4.60
2018,12,11,01,10,4.60
2018,12,11,01,11,4.60
2018,12,11,01,12,4.60
2018,12,11,01,13,4.60
2018,12,11,01,14,4.60
2018,12,11,01,15,4.60
2018,12,11,01,16,4.60
2018,12,11,01,17,4.60
2018,12,11,01,18,4.60
2018,12,11,01,19,4.60
2018,12,11,01,20,4.60
2018,12,11,01,21,4.60
2018,12,11,01,22,4.60
2018,12,11,01,23,4.60
2018,12,11,01,24,4.60
2018,12,11,01,25,4.60
2018,12,11,01,26,4.60
2018,12,11,01,27,4.60
2018,12,11,01,28,4.60
2018,12,11,01,29,4.60
2018,12,11,01,30,4.60
2018,12,11,01,31,4.60
2018,12,11,01,32,4.60
2018,12,11,01,33,4.60
2018,12,11,01,34,4.60
2018,12,11,01,35,4.60
2018,12,11,01,36,4.60
2018,12,11,01,37,4.60
2018,12,11,01,38,4.60
2018,12,11,01,39,4.60
2018,12,11,01,40,4.50
2018,12,11,01,41,4.50
2018,12,11,01,42,4.50
2018,12,11,01,43,4.50
2018,12,11,01,44,4.50
2018,12,11,01,45,4.50
2018,12,11,01,46,4.50
2018,12,11,01,47,4.50
2018,12,11,01,48,4.50
2018,12,11,01,49,4.50
2018,12,11,01,50,4.50
2018,12,11,01,51,4.50
2018,12,11,01,52,4.50
2018,12,11,01,53,4.50
2018,12,11,01,54,4.40
2018,12,11,01,55,4.40
2018,12,11,01,56,4.40
2018,12,11,01,57,4.40
2018,12,11,01,58,4.40
2018,12,11,01,59,4.40
2018,12,11,02,00,4.40
2018,12,11,02,01,4.40
2018,12,11,02,02,4.40
2018,12,11,02,03,4.40
2018,12,11,02,04,4.40
2018,12,11,02,05,4.40
2018,12,11,02,06,4.40
2018,12,11,02,07,4.40
2018,12,11,02,08,4.40
2018,12,11,02,09,4.40
2018,12,11,02,10,4.40
2018,12,11,02,11,4.40
2018,12,11,02,12,4.40
2018,12,11,02,13,4.40
2018,12,11,02,14,4.40
2018,12,11,02,15,4.40
2018,12,11,02,16,4.40
2018,12,11,02,17,4.40
2018,12,11,02,18,4.40
2018,12,11,02,19,4.40
2018,12,11,02,20,4.40
2018,12,11,02,21,4.40
2018,12,11,02,22,4.40
2018,12,11,02,23,4.40
2018,12,11,02,24,4.40
2018,12,11,02,25,4.40
2018,12,11,02,26,4.40
2018,12,11,02,27,4.30
2018,12,11,02,28,4.30
2018,12,11,02,29,4.30
2018,12,11,02,30,4.30
2018,12,11,02,31,4.30
2018,12,11,02,32,4.30
2018,12,11,02,33,4.30
2018,12,11,02,34,4.30
2018,12,11,02,35,4.30
2018,12,11,02,36,4.30
2018,12,11,02,37,4.20
2018,12,11,02,38,4.20
2018,12,11,02,39,4.20
2018,12,11,02,40,4.20
2018,12,11,02,41,4.20
2018,12,11,02,42,4.20
2018,12,11,02,43,4.20
2018,12,11,02,44,4.20
2018,12,11,02,45,4.20
2018,12,11,02,46,4.10
2018,12,11,02,47,4.10
2018,12,11,02,48,4.10
2018,12,11,02,49,4.10
2018,12,11,02,50,4.10
2018,12,11,02,51,4.10
2018,12,11,02,52,4.10
2018,12,11,02,53,4.10
2018,12,11,02,54,4.10
2018,12,11,02,55,4.10
2018,12,11,02,56,4.10
2018,12,11,02,57,4.00
2018,12,11,02,58,4.00
2018,12,11,02,59,4.00
2018,12,11,03,00,4.00
2018,12,11,03,01,4.00
2018,12,11,03,02,4.00
2018,12,11,03,03,4.00
2018,12,11,03,04,4.00
2018,12,11,03,05,4.00
2018,12,11,03,06,4.00
2018,12,11,03,07,3.90
2018,12,11,03,08,3.90
2018,12,11,03,09,3.90
2018,12,11,03,10,3.90
2018,12,11,03,11,3.90
2018,12,11,03,12,3.90
2018,12,11,03,13,3.90
2018,12,11,03,14,3.90
2018,12,11,03,15,3.90
2018,12,11,03,16,3.90
2018,12,11,03,17,3.90
2018,12,11,03,18,3.90
2018,12,11,03,19,3.90
2018,12,11,03,20,3.90
2018,12,11,03,21,3.90
2018,12,11,03,22,3.90
2018,12,11,03,23,3.90
2018,12,11,03,24,3.90
2018,12,11,03,25,3.90
2018,12,11,03,26,3.90
2018,12,11,03,27,3.80
2018,12,11,03,28,3.80
2018,12,11,03,29,3.80
2018,12,11,03,30,3.80
2018,12,11,03,31,3.80
2018,12,11,03,32,3.80
2018,12,11,03,33,3.80
2018,12,11,03,34,3.80
2018,12,11,03,35,3.80
2018,12,11,03,36,3.80
2018,12,11,03,37,3.80
2018,12,11,03,38,3.80
2018,12,11,03,39,3.80
2018,12,11,03,40,3.70
2018,12,11,03,41,3.70
2018,12,11,03,42,3.70
2018,12,11,03,43,3.70
2018,12,11,03,44,3.70
2018,12,11,03,45,3.70
2018,12,11,03,46,3.70
2018,12,11,03,47,3.70
2018,12,11,03,48,3.70
2018,12,11,03,49,3.70
2018,12,11,03,50,3.70
2018,12,11,03,51,3.70
2018,12,11,03,52,3.70
2018,12,11,03,53,3.70
2018,12,11,03,54,3.70
2018,12,11,03,55,3.70
2018,12,11,03,56,3.70
2018,12,11,03,57,3.70
2018,12,11,03,58,3.60
2018,12,11,03,59,3.60
2018,12,11,04,00,3.60
2018,12,11,04,01,3.60
2018,12,11,04,02,3.60
2018,12,11,04,03,3.60
2018,12,11,04,04,3.60
2018,12,11,04,05,3.60
2018,12,11,04,06,3.60
2018,12,11,04,07,3.60
2018,12,11,11,45,5.10
2018,12,11,11,46,5.10
2018,12,11,11,47,5.10
2018,12,11,11,48,5.10
2018,12,11,11,49,5.10
2018,12,11,11,50,5.10
2018,12,11,11,51,5.10
2018,12,11,11,52,5.20
2018,12,11,11,53,5.20
2018,12,11,11,54,5.20
2018,12,11,11,55,5.20
2018,12,11,11,56,5.20
2018,12,11,11,57,5.20
2018,12,11,11,58,5.20
2018,12,11,11,59,5.20
2018,12,11,12,00,5.20
2018,12,11,12,01,5.20
2018,12,11,12,02,5.20
2018,12,11,12,03,5.20
2018,12,11,12,04,5.20
2018,12,11,12,05,5.20
2018,12,11,12,06,5.20
2018,12,11,12,07,5.20
2018,12,11,12,08,5.30
2018,12,11,12,09,5.30
2018,12,11,12,10,5.30
2018,12,11,12,11,5.30
2018,12,11,12,12,5.30
2018,12,11,12,13,5.30
2018,12,11,12,14,5.30
2018,12,11,12,15,5.30
2018,12,11,12,16,5.30
2018,12,11,12,17,5.30
2018,12,11,12,18,5.30
2018,12,11,12,19,5.30
2018,12,11,12,20,5.30
2018,12,11,12,21,5.30
2018,12,11,12,22,5.30
2018,12,11,12,23,5.30
2018,12,11,12,24,5.30
2018,12,11,12,25,5.30
2018,12,11,12,26,5.30
2018,12,11,12,27,5.30
2018,12,11,12,28,5.30
2018,12,11,12,29,5.30
2018,12,11,12,30,5.40
2018,12,11,12,31,5.40
2018,12,11,12,32,5.40
2018,12,11,12,33,5.40
2018,12,11,12,34,5.40
2018,12,11,12,35,5.40
2018,12,11,12,36,5.40
2018,12,11,12,37,5.40
2018,12,11,12,38,5.40
2018,12,11,12,39,5.40
2018,12,11,12,40,5.40
2018,12,11,12,41,5.50
2018,12,11,12,42,5.50
2018,12,11,12,43,5.50
2018,12,11,12,44,5.50
2018,12,11,12,45,5.50
2018,12,11,12,46,5.50
2018,12,11,12,47,5.60
2018,12,11,12,48,5.60
2018,12,11,12,49,5.60
2018,12,11,12,50,5.60
2018,12,11,12,51,5.60
2018,12,11,12,52,5.60
2018,12,11,12,53,5.60
2018,12,11,12,54,5.60
2018,12,11,12,55,5.60
2018,12,11,12,56,5.60
2018,12,11,12,57,5.60
2018,12,11,12,58,5.60
2018,12,11,12,59,5.60
2018,12,11,13,00,5.70
2018,12,11,13,01,5.70
2018,12,11,13,02,5.70
2018,12,11,13,03,5.70
2018,12,11,13,04,5.70
2018,12,11,13,05,5.70
2018,12,11,13,06,5.70
2018,12,11,13,07,5.70
2018,12,11,13,08,5.70
2018,12,11,13,09,5.80
2018,12,11,13,10,5.80
2018,12,11,13,11,5.80
2018,12,11,13,12,5.80
2018,12,11,13,13,5.80
2018,12,11,13,14,5.80
2018,12,11,13,15,5.80
2018,12,11,13,16,5.80
2018,12,11,13,17,5.80
2018,12,11,13,18,5.80
2018,12,11,13,19,5.90
2018,12,11,13,20,6.00
2018,12,11,13,21,6.30
2018,12,11,13,22,6.60
2018,12,11,13,23,6.70
2018,12,11,13,24,6.80
2018,12,11,13,25,6.90
2018,12,11,13,26,7.00
2018,12,11,13,27,7.10
2018,12,11,13,28,7.20
2018,12,11,13,29,7.20
2018,12,11,13,30,7.20
2018,12,11,13,31,7.20
2018,12,11,13,32,7.20
2018,12,11,13,33,7.20
2018,12,11,13,34,7.20
2018,12,11,13,35,7.30
2018,12,11,13,36,7.30
2018,12,11,13,37,7.30
2018,12,11,13,38,7.30
2018,12,11,13,39,7.30
2018,12,11,13,40,7.30
2018,12,11,13,41,7.30
2018,12,11,13,42,7.30
2018,12,11,13,43,7.30
2018,12,11,13,44,7.30
2018,12,11,13,45,7.30
2018,12,11,13,46,7.30
2018,12,11,13,47,7.30
2018,12,11,13,48,7.30
2018,12,11,13,49,7.30
2018,12,11,13,50,7.30
2018,12,11,13,51,7.30
2018,12,11,13,52,7.30
2018,12,11,13,53,7.30
2018,12,11,13,54,7.40
2018,12,11,13,55,7.40
2018,12,11,13,56,7.40
2018,12,11,13,57,7.40
2018,12,11,13,58,7.50
2018,12,11,13,59,7.50
2018,12,11,14,00,7.50
2018,12,11,14,01,7.50
2018,12,11,14,02,7.60
2018,12,11,14,03,7.60
2018,12,11,14,04,7.60
2018,12,11,14,05,7.60
2018,12,11,14,06,7.60
2018,12,11,14,07,7.60
2018,12,11,14,08,7.70
2018,12,11,14,09,7.70
2018,12,11,14,10,7.70
2018,12,11,14,11,7.70
2018,12,11,14,12,7.70
2018,12,11,14,13,7.70
2018,12,11,14,14,7.70
2018,12,11,14,15,7.70
2018,12,11,14,16,7.70
2018,12,11,14,17,7.70
2018,12,11,14,18,7.70
2018,12,11,14,19,7.70
2018,12,11,14,20,7.70
2018,12,11,14,21,7.70
2018,12,11,14,22,7.70
2018,12,11,14,23,7.70
2018,12,11,14,24,7.70
2018,12,11,14,25,7.70
2018,12,11,14,26,7.70
2018,12,11,14,27,7.70
2018,12,11,14,28,7.70
2018,12,11,14,29,7.70
2018,12,11,14,30,7.60
2018,12,11,14,31,7.70
2018,12,11,14,32,7.70
2018,12,11,14,33,7.60
2018,12,11,14,34,7.60
2018,12,11,14,35,7.60
2018,12,11,14,36,7.60
2018,12,11,14,37,7.60
2018,12,11,14,38,7.60
2018,12,11,14,39,7.60
2018,12,11,14,40,7.60
2018,12,11,14,41,7.70
2018,12,11,14,42,7.70
2018,12,11,14,43,7.60
2018,12,11,14,44,7.60
2018,12,11,14,45,7.60
2018,12,11,14,46,7.60
2018,12,11,14,47,7.60
2018,12,11,14,48,7.60
2018,12,11,14,49,7.60
2018,12,11,14,50,7.60
2018,12,11,14,51,7.60
2018,12,11,14,52,7.60
2018,12,11,14,53,7.60
2018,12,11,14,54,7.60
2018,12,11,14,55,7.60
2018,12,11,14,56,7.60
2018,12,11,14,57,7.60
2018,12,11,14,58,7.60
2018,12,11,14,59,7.60
2018,12,11,15,00,7.60
2018,12,11,15,01,7.60
2018,12,11,15,02,7.60
2018,12,11,15,03,7.60
2018,12,11,15,04,7.60
2018,12,11,15,05,7.60
2018,12,11,15,06,7.60
2018,12,11,15,07,7.60
2018,12,11,15,08,7.70
2018,12,11,15,09,7.60
2018,12,11,15,10,7.60
2018,12,11,15,11,7.70
2018,12,11,15,12,7.70
2018,12,11,15,13,7.70
2018,12,11,15,14,7.60
2018,12,11,15,15,7.60
2018,12,11,15,16,7.60
2018,12,11,15,17,7.60
2018,12,11,15,18,7.60
2018,12,11,15,19,7.60
2018,12,11,15,20,7.60
2018,12,11,15,21,7.60
2018,12,11,15,22,7.60
2018,12,11,15,23,7.60
2018,12,11,15,24,7.50
2018,12,11,15,25,7.50
2018,12,11,15,26,7.50
2018,12,11,15,27,7.40
2018,12,11,15,28,7.40
2018,12,11,15,29,7.40
2018,12,11,15,30,7.40
2018,12,11,15,31,7.40
2018,12,11,15,32,7.40
2018,12,11,15,33,7.30
2018,12,11,15,34,7.30
2018,12,11,15,35,7.30
2018,12,11,15,36,7.30
2018,12,11,15,37,7.30
2018,12,11,15,38,7.30
2018,12,11,15,39,7.30
2018,12,11,15,40,7.30
2018,12,11,15,41,7.30
2018,12,11,15,42,7.30
2018,12,11,15,43,7.20
2018,12,11,15,44,7.20
2018,12,11,15,45,7.20
2018,12,11,15,46,7.20
2018,12,11,15,47,7.20
2018,12,11,15,48,7.20
2018,12,11,15,49,7.20
2018,12,11,15,50,7.20
2018,12,11,15,51,7.20
2018,12,11,15,52,7.20
2018,12,11,15,53,7.20
2018,12,11,15,54,7.10
2018,12,11,15,55,7.10
2018,12,11,15,56,7.10
2018,12,11,15,57,7.10
2018,12,11,15,58,7.10
2018,12,11,15,59,7.10
2018,12,11,16,00,7.00
2018,12,11,16,01,7.00
2018,12,11,16,02,7.00
2018,12,11,16,03,6.90
2018,12,11,16,04,6.90
2018,12,11,16,05,6.90
2018,12,11,16,06,6.90
2018,12,11,16,07,6.90
2018,12,11,16,08,6.90
2018,12,11,16,09,6.80
2018,12,11,16,10,6.80
2018,12,11,16,11,6.80
2018,12,11,16,12,6.80
2018,12,11,16,13,6.80
2018,12,11,16,14,6.80
2018,12,11,16,15,6.70
2018,12,11,16,16,6.70
2018,12,11,16,17,6.70
2018,12,11,16,18,6.70
2018,12,11,16,19,6.70
2018,12,11,16,20,6.70
2018,12,11,16,21,6.70
2018,12,11,16,22,6.70
2018,12,11,16,23,6.70
2018,12,11,16,24,6.60
2018,12,11,16,25,6.60
2018,12,11,16,26,6.60
2018,12,11,16,27,6.60
2018,12,11,16,28,6.60
2018,12,11,16,29,6.60
2018,12,11,16,30,6.60
2018,12,11,16,31,6.60
2018,12,11,16,32,6.50
2018,12,11,16,33,6.50
2018,12,11,16,34,6.50
2018,12,11,16,35,6.50
2018,12,11,16,36,6.50
2018,12,11,16,37,6.40
2018,12,11,16,38,6.40
2018,12,11,16,39,6.40
2018,12,11,16,40,6.40
2018,12,11,16,41,6.40
2018,12,11,16,42,6.30
2018,12,11,16,43,6.30
2018,12,11,16,44,6.30
2018,12,11,16,45,6.30
2018,12,11,16,46,6.30
2018,12,11,16,47,6.30
2018,12,11,16,48,6.30
2018,12,11,16,49,6.30
2018,12,11,16,50,6.30
2018,12,11,16,51,6.30
2018,12,11,16,52,6.20
2018,12,11,16,53,6.20
2018,12,11,16,54,6.20
2018,12,11,16,55,6.20
2018,12,11,16,56,6.20
2018,12,11,16,57,6.20
2018,12,11,16,58,6.20
2018,12,11,16,59,6.20
2018,12,11,17,00,6.20
2018,12,11,17,01,6.20
2018,12,11,17,02,6.20
2018,12,11,17,03,6.20
2018,12,11,17,04,6.20
2018,12,11,17,05,6.20
2018,12,11,17,06,6.20
2018,12,11,17,07,6.20
2018,12,11,17,08,6.20
2018,12,11,17,09,6.20
2018,12,11,17,10,6.20
2018,12,11,17,11,6.20
2018,12,11,17,12,6.20
2018,12,11,17,13,6.20
2018,12,11,17,14,6.30
2018,12,11,17,15,6.30
2018,12,11,17,16,6.30
2018,12,11,17,17,6.30
2018,12,11,17,18,6.30
2018,12,11,17,19,6.30
2018,12,11,17,20,6.30
2018,12,11,17,21,6.30
2018,12,11,17,22,6.30
2018,12,11,17,23,6.30
2018,12,11,17,24,6.30
2018,12,11,17,25,6.30
2018,12,11,17,26,6.30
2018,12,11,17,27,6.30
2018,12,11,17,28,6.30
2018,12,11,17,29,6.30
2018,12,11,17,30,6.30
2018,12,11,17,31,6.30
2018,12,11,17,32,6.30
2018,12,11,17,33,6.30
2018,12,11,17,34,6.30
2018,12,11,17,35,6.30
2018,12,11,17,36,6.30
2018,12,11,17,37,6.30
2018,12,11,17,38,6.30
2018,12,11,17,39,6.30
2018,12,11,17,40,6.30
2018,12,11,17,41,6.30
2018,12,11,17,42,6.30
2018,12,11,17,43,6.30
2018,12,11,17,44,6.30
2018,12,11,17,45,6.30
2018,12,11,17,46,6.30
2018,12,11,17,47,6.30
2018,12,11,17,48,6.30
2018,12,11,17,49,6.30
2018,12,11,17,50,6.30
2018,12,11,17,51,6.20
2018,12,11,17,52,6.20
2018,12,11,17,53,6.20
2018,12,11,17,54,6.20
2018,12,11,17,55,6.20
2018,12,11,17,56,6.20
2018,12,11,17,57,6.20
2018,12,11,17,58,6.20
2018,12,11,17,59,6.10
2018,12,11,18,00,6.10
2018,12,11,18,01,6.10
2018,12,11,18,02,6.10
2018,12,11,18,03,6.00
2018,12,11,18,04,6.00
2018,12,11,18,05,6.00
2018,12,11,18,06,5.90
2018,12,11,18,07,5.90
2018,12,11,18,08,5.90
2018,12,11,18,09,5.80
2018,12,11,18,10,5.80
2018,12,11,18,11,5.80
2018,12,11,18,12,5.80
2018,12,11,18,13,5.80
2018,12,11,18,14,5.80
2018,12,11,18,15,5.80
2018,12,11,18,16,5.80
2018,12,11,18,17,5.80
2018,12,11,18,18,5.80
2018,12,11,18,19,5.80
2018,12,11,18,20,5.80
2018,12,11,18,21,5.70
2018,12,11,18,22,5.70
2018,12,11,18,23,5.70
2018,12,11,18,24,5.70
2018,12,11,18,25,5.70
2018,12,11,18,26,5.70
2018,12,11,18,27,5.70
2018,12,11,18,28,5.60
2018,12,11,18,29,5.60
2018,12,11,18,30,5.60
2018,12,11,18,31,5.60
2018,12,11,18,32,5.60
2018,12,11,18,33,5.60
2018,12,11,18,34,5.60
2018,12,11,18,35,5.60
2018,12,11,18,36,5.60
2018,12,11,18,37,5.50
2018,12,11,18,38,5.50
2018,12,11,18,39,5.50
2018,12,11,18,40,5.50
2018,12,11,18,41,5.50
2018,12,11,18,42,5.50
2018,12,11,18,43,5.50
2018,12,11,18,44,5.50
2018,12,11,18,45,5.50
2018,12,11,18,46,5.60
2018,12,11,18,47,5.60
2018,12,11,18,48,5.60
2018,12,11,18,49,5.60
2018,12,11,18,50,5.60
2018,12,11,18,51,5.50
2018,12,11,18,52,5.50
2018,12,11,18,53,5.50
2018,12,11,18,54,5.50
2018,12,11,18,55,5.50
2018,12,11,18,56,5.50
2018,12,11,18,57,5.50
2018,12,11,18,58,5.40
2018,12,11,18,59,5.40
2018,12,11,19,00,5.50
2018,12,11,19,01,5.50
2018,12,11,19,02,5.50
2018,12,11,19,03,5.50
2018,12,11,19,04,5.50
2018,12,11,19,05,5.50
2018,12,11,19,06,5.50
2018,12,11,19,07,5.50
2018,12,11,19,08,5.40
2018,12,11,19,09,5.40
2018,12,11,19,10,5.40
2018,12,11,19,11,5.40
2018,12,11,19,12,5.40
2018,12,11,19,13,5.40
2018,12,11,19,14,5.40
2018,12,11,19,15,5.40
2018,12,11,19,16,5.40
2018,12,11,19,17,5.40
2018,12,11,19,18,5.40
2018,12,11,19,19,5.40
2018,12,11,19,20,5.40
2018,12,11,19,21,5.40
2018,12,11,19,22,5.40
2018,12,11,19,23,5.40
2018,12,11,19,24,5.40
2018,12,11,19,25,5.40
2018,12,11,19,26,5.40
2018,12,11,19,27,5.40
